Lake Charles, LA

10:41 PM CDT on October 22, 2019 (GMT -0500)
Chennault International

Weather History for KCWF - September, 2019

Change the Weather History Date:

Tuesday, September 17, 2019

  Actual Average Record
Temperature  
Mean Temperature 80 °F -  
Max Temperature 86 °F 86 °F 102 °F (2005)
Min Temperature 75 °F 70 °F 53 °F (2012)
Cooling Degree Days 14    
Growing Degree Days 30 (Base 50)    
Moisture  
Dew Point 75 °F    
Average Humidity 93    
Maximum Humidity 100    
Minimum Humidity 79    
Precipitation  
Precipitation 0.00 in - - ()
Sea Level Pressure  
Sea Level Pressure 29.95 in    
Wind  
Wind Speed 6 mph ()    
Max Wind Speed 17 mph    
Max Gust Speed 28 mph    
Visibility 9.5 miles    
Events Rain    
Averages and records for this station are not official NWS values.
T = Trace of Precipitation, MM = Missing Value Source: Averaged Metar Reports

Daily Weather History Graph

Daily Weather History Graph

Search for Another Location

Airport or City:

Astronomy

Sep. 17, 2019 Rise Set
Actual Time 6:58 AM CDT 7:15 PM CDT
Civil Twilight 6:34 AM CDT 7:39 PM CDT
Nautical Twilight 6:05 AM CDT 8:07 PM CDT
Astronomical Twilight 5:37 AM CDT 8:35 PM CDT
Moon 9:32 PM CDT (9/17) 9:52 AM CDT (9/17)
Length of Visible Light 13h 05m
Length of Day
12h 17m
Waning Gibbous, 89% of the Moon is Illuminated
Sep 17
Waning Gibbous
Sep 21
Last Quarter
Sep 28
New
Oct 5
First Quarter
Oct 13
Full

Hourly Weather History & Observations

Time (CDT) Temp. Heat Index Dew Point Humidity Pressure Visibility Wind Dir Wind Speed Gust Speed Precip Events Conditions
12:15 AM 76.1 °F - 74.3 °F 94% 29.96 in 10.0 mi East 5.8 mph - N/A   Clear
12:35 AM 75.7 °F - 74.3 °F 95% 29.96 in 10.0 mi East 5.8 mph - N/A   Clear
12:55 AM 75.6 °F - 74.3 °F 96% 29.96 in 10.0 mi East 5.8 mph - N/A   Clear
1:15 AM 75.7 °F - 74.3 °F 95% 29.95 in 10.0 mi East 5.8 mph - N/A   Clear
1:35 AM 75.4 °F - 74.3 °F 96% 29.95 in 10.0 mi East 5.8 mph - N/A   Clear
1:55 AM 75.6 °F - 74.3 °F 96% 29.95 in 10.0 mi East 5.8 mph - N/A   Clear
2:15 AM 75.4 °F - 74.1 °F 96% 29.95 in 10.0 mi East 4.6 mph - N/A   Clear
2:35 AM 75.4 °F - 74.5 °F 97% 29.94 in 10.0 mi East 4.6 mph - N/A   Clear
2:55 AM 75.4 °F - 74.5 °F 97% 29.94 in 10.0 mi East 4.6 mph - N/A   Clear
3:10 AM 75.4 °F - 74.5 °F 97% 29.94 in 10.0 mi East 5.8 mph - N/A   Clear
3:35 AM 75.2 °F - 74.3 °F 97% 29.93 in 10.0 mi ENE 4.6 mph - N/A   Clear
3:55 AM 75.2 °F - 74.3 °F 97% 29.93 in 10.0 mi East 6.9 mph - N/A   Clear
4:15 AM 75.2 °F - 74.3 °F 97% 29.93 in 10.0 mi East 6.9 mph - N/A   Clear
4:35 AM 75.2 °F - 74.3 °F 97% 29.93 in 10.0 mi East 5.8 mph - N/A   Scattered Clouds
5:15 AM 75.4 °F - 74.5 °F 97% 29.94 in 10.0 mi East 6.9 mph - N/A   Overcast
5:35 AM 75.6 °F - 74.7 °F 97% 29.94 in 7.0 mi East 8.1 mph - N/A   Overcast
6:00 AM 75.2 °F - 75.2 °F 100% 29.95 in 6.0 mi East 8.1 mph - N/A   Overcast
6:53 AM 77.0 °F - 75.2 °F 94% 29.96 in 7.0 mi East 8.1 mph - N/A   Overcast
8:50 AM 80.6 °F 87.1 °F 77.0 °F 89% 29.99 in 5.0 mi East 11.5 mph 19.6 mph N/A   Mostly Cloudy
9:50 AM 82.4 °F 90.9 °F 77.0 °F 84% 30.00 in 10.0 mi East 13.8 mph 20.7 mph N/A   Mostly Cloudy
10:46 AM 84.2 °F 96.1 °F 78.8 °F 84% 30.00 in 10.0 mi East 10.4 mph 20.7 mph N/A   Mostly Cloudy
11:05 AM 84.2 °F 96.1 °F 78.8 °F 84% 30.00 in 10.0 mi ESE 8.1 mph 23.0 mph N/A   Mostly Cloudy
12:50 PM 84.2 °F 94.1 °F 77.0 °F 79% 29.99 in 10.0 mi South 6.9 mph - N/A   Mostly Cloudy
1:58 PM 82.4 °F 90.9 °F 77.0 °F 84% 29.97 in 10.0 mi South 11.5 mph - N/A   Mostly Cloudy
2:50 PM 80.6 °F 85.4 °F 73.4 °F 79% 29.98 in 5.0 mi South 17.3 mph 27.6 mph N/A Rain Heavy Rain
3:50 PM 77.0 °F - 73.4 °F 89% 29.95 in 10.0 mi South 9.2 mph - N/A   Mostly Cloudy
4:50 PM 77.0 °F - 73.4 °F 89% 29.94 in 10.0 mi SE 10.4 mph - N/A   Scattered Clouds
5:50 PM 78.8 °F - 73.4 °F 83% 29.94 in 10.0 mi ESE 10.4 mph 17.3 mph N/A   Scattered Clouds
6:55 PM 77.0 °F - 75.2 °F 94% 29.94 in 10.0 mi East 5.8 mph 17.3 mph N/A   Scattered Clouds
7:50 PM 77.0 °F - 73.4 °F 89% 29.95 in 10.0 mi ESE 5.8 mph - N/A   Scattered Clouds
8:50 PM 75.2 °F - 73.4 °F 94% 29.96 in 10.0 mi East 13.8 mph 20.7 mph N/A   Clear
9:50 PM 75.2 °F - 73.4 °F 94% 29.94 in 10.0 mi East 6.9 mph 17.3 mph N/A   Clear
10:15 PM 76.3 °F - 74.3 °F 94% 29.94 in 10.0 mi ESE 5.8 mph 19.6 mph N/A Rain Heavy Rain
10:35 PM 76.1 °F - 74.5 °F 95% 29.94 in 10.0 mi East 5.8 mph - N/A Rain Rain
10:55 PM 76.1 °F - 74.7 °F 95% 29.94 in 10.0 mi East 5.8 mph - N/A Rain Heavy Rain
11:15 PM 76.1 °F - 74.7 °F 95% 29.94 in 10.0 mi East 5.8 mph - N/A Rain Rain
11:55 PM 76.5 °F - 75.2 °F 96% 29.94 in 10.0 mi East 5.8 mph - N/A Rain Rain